Time,TemperatureF,DewpointF,PressureIn,WindDirection,WindDirectionDegrees,WindSpeedMPH,WindSpeedGustMPH,Humidity,HourlyPrecipIn,Conditions,Clouds,dailyrainin,SoftwareType,DateUTC
2013-11-01 00:04:00,44.6,43.3,29.25,NNE,13,0.0,0.0,95,0.00,,,0.00,VWS V12.07,2013-11-01 05:04:00,
2013-11-01 00:09:00,44.5,43.2,29.25,WSW,252,0.0,3.0,95,0.00,,,0.00,VWS V12.07,2013-11-01 05:09:00,
2013-11-01 00:14:00,44.5,43.2,29.25,WSW,249,0.0,3.0,95,0.00,,,0.00,VWS V12.07,2013-11-01 05:14:00,
2013-11-01 00:19:00,44.4,43.1,29.25,West,261,6.0,6.0,95,0.00,,,0.00,VWS V12.07,2013-11-01 05:19:00,
2013-11-01 00:24:00,44.3,43.0,29.25,NW,325,0.0,7.0,95,0.00,,,0.00,VWS V12.07,2013-11-01 05:24:00,
2013-11-01 00:29:00,44.2,42.9,29.26,North,10,0.0,7.0,95,0.00,,,0.00,VWS V12.07,2013-11-01 05:29:00,
2013-11-01 00:34:00,44.1,42.8,29.26,ENE,61,0.0,5.0,95,0.00,,,0.00,VWS V12.07,2013-11-01 05:34:00,
2013-11-01 00:44:00,43.9,42.3,29.26,ENE,73,0.0,6.0,94,0.00,,,0.00,VWS V12.07,2013-11-01 05:44:00,
2013-11-01 00:49:00,43.7,42.1,29.26,NE,41,1.0,6.0,94,0.00,,,0.00,VWS V12.07,2013-11-01 05:49:00,
2013-11-01 00:54:00,43.6,42.0,29.26,NE,38,0.0,6.0,94,0.00,,,0.00,VWS V12.07,2013-11-01 05:54:00,
2013-11-01 00:59:00,43.5,41.9,29.26,North,355,0.0,6.0,94,0.00,,,0.00,VWS V12.07,2013-11-01 05:59:00,
2013-11-01 01:04:00,43.4,41.8,29.26,NNE,28,0.0,4.0,94,0.00,,,0.00,VWS V12.07,2013-11-01 06:04:00,
2013-11-01 01:09:00,43.4,41.8,29.26,NNW,344,1.0,4.0,94,0.00,,,0.00,VWS V12.07,2013-11-01 06:09:00,
2013-11-01 01:14:00,43.3,41.7,29.26,SSW,205,2.0,6.0,94,0.00,,,0.00,VWS V12.07,2013-11-01 06:14:00,
2013-11-01 01:19:00,43.3,41.7,29.27,NE,39,2.0,6.0,94,0.00,,,0.00,VWS V12.07,2013-11-01 06:19:00,
2013-11-01 01:24:00,43.2,41.6,29.27,NNW,337,0.0,6.0,94,0.00,,,0.00,VWS V12.07,2013-11-01 06:24:00,
2013-11-01 01:34:00,43.1,41.5,29.27,North,355,1.0,3.0,94,0.00,,,0.00,VWS V12.07,2013-11-01 06:34:00,
2013-11-01 01:39:00,43.1,41.5,29.28,WNW,296,0.0,3.0,94,0.00,,,0.00,VWS V12.07,2013-11-01 06:39:00,
2013-11-01 01:44:00,43.1,41.5,29.27,North,351,0.0,3.0,94,0.00,,,0.00,VWS V12.07,2013-11-01 06:44:00,
2013-11-01 01:49:00,43.1,41.5,29.27,NNE,28,1.0,4.0,94,0.00,,,0.00,VWS V12.07,2013-11-01 06:49:00,
2013-11-01 01:54:00,42.9,41.3,29.28,SW,226,5.0,6.0,94,0.00,,,0.00,VWS V12.07,2013-11-01 06:54:00,
2013-11-01 01:59:00,43.0,41.4,29.28,WSW,244,1.0,6.0,94,0.00,,,0.00,VWS V12.07,2013-11-01 06:59:00,
2013-11-01 02:04:00,42.9,41.3,29.28,East,95,0.0,1.0,94,0.00,,,0.00,VWS V12.07,2013-11-01 07:04:00,
2013-11-01 02:14:00,42.9,41.3,29.28,West,273,0.0,5.0,94,0.00,,,0.00,VWS V12.07,2013-11-01 07:14:00,
2013-11-01 02:19:00,42.8,41.2,29.28,NNW,329,1.0,5.0,94,0.00,,,0.00,VWS V12.07,2013-11-01 07:19:00,
2013-11-01 02:24:00,42.8,41.2,29.28,NNW,329,3.0,5.0,94,0.00,,,0.00,VWS V12.07,2013-11-01 07:24:00,
2013-11-01 02:29:00,42.8,41.2,29.29,WNW,287,0.0,5.0,94,0.00,,,0.00,VWS V12.07,2013-11-01 07:29:00,
2013-11-01 02:34:00,42.7,41.1,29.29,NNW,343,0.0,1.0,94,0.00,,,0.00,VWS V12.07,2013-11-01 07:34:00,
2013-11-01 02:39:00,42.7,41.1,29.29,NW,326,0.0,1.0,94,0.00,,,0.00,VWS V12.07,2013-11-01 07:39:00,
2013-11-01 02:44:00,42.7,41.1,29.30,WSW,242,2.0,2.0,94,0.00,,,0.00,VWS V12.07,2013-11-01 07:44:00,
2013-11-01 02:49:00,42.7,41.1,29.30,NE,56,0.0,5.0,94,0.00,,,0.00,VWS V12.07,2013-11-01 07:49:00,
2013-11-01 02:59:00,42.7,41.1,29.30,NW,305,0.0,5.0,94,0.00,,,0.00,VWS V12.07,2013-11-01 07:59:00,
2013-11-01 03:04:00,42.7,41.1,29.30,NW,311,0.0,1.0,94,0.00,,,0.00,VWS V12.07,2013-11-01 08:04:00,
2013-11-01 03:14:00,42.7,41.1,29.31,East,82,2.0,3.0,94,0.00,,,0.00,VWS V12.07,2013-11-01 08:14:00,
2013-11-01 03:19:00,42.7,41.1,29.31,WSW,238,0.0,4.0,94,0.00,,,0.00,VWS V12.07,2013-11-01 08:19:00,
2013-11-01 03:24:00,42.7,41.1,29.31,West,263,4.0,4.0,94,0.00,,,0.00,VWS V12.07,2013-11-01 08:24:00,
2013-11-01 03:34:00,42.8,41.2,29.31,WNW,297,1.0,5.0,94,0.00,,,0.00,VWS V12.07,2013-11-01 08:34:00,
2013-11-01 03:39:00,42.8,41.2,29.31,SW,222,0.0,8.0,94,0.00,,,0.00,VWS V12.07,2013-11-01 08:39:00,
2013-11-01 03:44:00,42.8,41.2,29.32,North,355,0.0,8.0,94,0.00,,,0.00,VWS V12.07,2013-11-01 08:44:00,
2013-11-01 03:54:00,42.8,41.2,29.32,NW,305,0.0,8.0,94,0.00,,,0.00,VWS V12.07,2013-11-01 08:54:00,
2013-11-01 03:59:00,42.8,41.2,29.32,West,261,0.0,8.0,94,0.00,,,0.00,VWS V12.07,2013-11-01 08:59:00,
2013-11-01 04:04:00,42.8,41.2,29.32,WSW,238,0.0,1.0,94,0.00,,,0.00,VWS V12.07,2013-11-01 09:04:00,
2013-11-01 04:14:00,42.8,41.2,29.33,NNW,338,1.0,6.0,94,0.00,,,0.00,VWS V12.07,2013-11-01 09:14:00,
2013-11-01 04:24:00,42.6,41.0,29.34,NNW,330,0.0,7.0,94,0.00,,,0.00,VWS V12.07,2013-11-01 09:24:00,
2013-11-01 04:29:00,42.6,41.0,29.34,SSW,192,1.0,7.0,94,0.00,,,0.00,VWS V12.07,2013-11-01 09:29:00,
2013-11-01 04:39:00,42.4,40.5,29.35,NNE,12,3.0,6.0,93,0.00,,,0.00,VWS V12.07,2013-11-01 09:39:00,
2013-11-01 04:44:00,42.4,40.5,29.35,NW,321,0.0,6.0,93,0.00,,,0.00,VWS V12.07,2013-11-01 09:44:00,
2013-11-01 04:49:00,42.4,40.5,29.35,SW,234,0.0,6.0,93,0.00,,,0.00,VWS V12.07,2013-11-01 09:49:00,
2013-11-01 04:59:00,42.3,40.4,29.35,NNE,17,0.0,6.0,93,0.00,,,0.00,VWS V12.07,2013-11-01 09:59:00,
2013-11-01 05:04:00,42.3,40.4,29.35,NW,310,1.0,1.0,93,0.00,,,0.00,VWS V12.07,2013-11-01 10:04:00,
2013-11-01 05:09:00,42.3,40.4,29.36,WSW,249,0.0,3.0,93,0.00,,,0.00,VWS V12.07,2013-11-01 10:09:00,
2013-11-01 05:14:00,42.2,40.3,29.36,WSW,239,0.0,3.0,93,0.00,,,0.00,VWS V12.07,2013-11-01 10:14:00,
2013-11-01 05:19:00,42.2,40.3,29.36,West,267,2.0,7.0,93,0.00,,,0.00,VWS V12.07,2013-11-01 10:19:00,
2013-11-01 05:24:00,42.1,40.2,29.36,North,360,0.0,7.0,93,0.00,,,0.00,VWS V12.07,2013-11-01 10:24:00,
2013-11-01 05:29:00,42.1,40.2,29.37,WNW,287,0.0,7.0,93,0.00,,,0.00,VWS V12.07,2013-11-01 10:29:00,
2013-11-01 05:39:00,42.0,40.1,29.37,West,273,0.0,4.0,93,0.00,,,0.00,VWS V12.07,2013-11-01 10:39:00,
2013-11-01 05:44:00,42.0,40.1,29.37,WNW,282,0.0,5.0,93,0.00,,,0.00,VWS V12.07,2013-11-01 10:44:00,
2013-11-01 05:49:00,41.9,40.0,29.37,NW,311,4.0,7.0,93,0.00,,,0.00,VWS V12.07,2013-11-01 10:49:00,
2013-11-01 05:54:00,41.9,40.0,29.38,North,349,2.0,7.0,93,0.00,,,0.00,VWS V12.07,2013-11-01 10:54:00,
2013-11-01 05:59:00,41.8,39.9,29.38,WNW,293,0.0,7.0,93,0.00,,,0.00,VWS V12.07,2013-11-01 10:59:00,
2013-11-01 06:04:00,41.6,39.7,29.39,NW,317,1.0,2.0,93,0.00,,,0.00,VWS V12.07,2013-11-01 11:04:00,
2013-11-01 06:09:00,41.6,39.7,29.39,WSW,253,1.0,5.0,93,0.00,,,0.00,VWS V12.07,2013-11-01 11:09:00,
2013-11-01 06:19:00,41.6,39.7,29.39,North,350,0.0,9.0,93,0.00,,,0.00,VWS V12.07,2013-11-01 11:19:00,
2013-11-01 06:24:00,41.6,39.7,29.40,WNW,294,0.0,9.0,93,0.00,,,0.00,VWS V12.07,2013-11-01 11:24:00,
2013-11-01 06:29:00,41.6,39.7,29.40,WSW,248,0.0,9.0,93,0.00,,,0.00,VWS V12.07,2013-11-01 11:29:00,
2013-11-01 06:34:00,41.5,39.6,29.40,WNW,283,0.0,3.0,93,0.00,,,0.00,VWS V12.07,2013-11-01 11:34:00,
2013-11-01 06:39:00,41.5,39.9,29.40,NW,305,0.0,5.0,94,0.00,,,0.00,VWS V12.07,2013-11-01 11:39:00,
2013-11-01 06:44:00,41.4,39.8,29.40,West,259,0.0,5.0,94,0.00,,,0.00,VWS V12.07,2013-11-01 11:44:00,
2013-11-01 06:54:00,41.2,39.6,29.40,WSW,246,0.0,5.0,94,0.00,,,0.00,VWS V12.07,2013-11-01 11:54:00,
2013-11-01 06:59:00,41.2,39.6,29.41,SE,134,0.0,5.0,94,0.00,,,0.00,VWS V12.07,2013-11-01 11:59:00,
2013-11-01 07:04:00,41.1,39.5,29.41,WNW,290,2.0,3.0,94,0.00,,,0.00,VWS V12.07,2013-11-01 12:04:00,
2013-11-01 07:14:00,41.1,39.5,29.41,WSW,257,0.0,4.0,94,0.00,,,0.00,VWS V12.07,2013-11-01 12:14:00,
2013-11-01 07:19:00,41.1,39.5,29.42,West,279,0.0,6.0,94,0.00,,,0.00,VWS V12.07,2013-11-01 12:19:00,
2013-11-01 07:24:00,41.0,41.0,29.42,West,265,0.0,6.0,100,0.00,,,0.00,VWS V12.07,2013-11-01 12:24:00,
2013-11-01 07:29:00,40.9,39.3,29.42,WNW,286,0.0,6.0,94,0.00,,,0.00,VWS V12.07,2013-11-01 12:29:00,
2013-11-01 07:34:00,40.9,39.3,29.43,WSW,249,0.0,7.0,94,0.00,,,0.00,VWS V12.07,2013-11-01 12:34:00,
2013-11-01 07:39:00,40.8,39.2,29.43,SW,226,0.0,7.0,94,0.00,,,0.00,VWS V12.07,2013-11-01 12:39:00,
2013-11-01 07:49:00,40.8,39.2,29.43,NW,314,3.0,7.0,94,0.00,,,0.00,VWS V12.07,2013-11-01 12:49:00,
2013-11-01 07:54:00,40.7,39.1,29.43,WSW,250,0.0,7.0,94,0.00,,,0.00,VWS V12.07,2013-11-01 12:54:00,
2013-11-01 08:04:00,40.6,39.0,29.44,West,267,2.0,5.0,94,0.00,,,0.00,VWS V12.07,2013-11-01 13:04:00,
2013-11-01 08:09:00,40.6,39.0,29.45,South,185,1.0,6.0,94,0.00,,,0.00,VWS V12.07,2013-11-01 13:09:00,
2013-11-01 08:14:00,40.6,39.0,29.45,SW,232,0.0,6.0,94,0.00,,,0.00,VWS V12.07,2013-11-01 13:14:00,
2013-11-01 08:24:00,40.6,39.0,29.46,West,262,0.0,6.0,94,0.00,,,0.00,VWS V12.07,2013-11-01 13:24:00,
2013-11-01 08:29:00,40.6,39.0,29.46,NNW,331,1.0,6.0,94,0.00,,,0.00,VWS V12.07,2013-11-01 13:29:00,
2013-11-01 08:34:00,40.6,39.0,29.46,WNW,296,0.0,1.0,94,0.00,,,0.00,VWS V12.07,2013-11-01 13:34:00,
2013-11-01 08:39:00,40.5,38.9,29.47,WSW,258,0.0,6.0,94,0.00,,,0.00,VWS V12.07,2013-11-01 13:39:00,
2013-11-01 08:49:00,40.5,38.9,29.47,West,265,3.0,8.0,94,0.00,,,0.00,VWS V12.07,2013-11-01 13:49:00,
2013-11-01 08:54:00,40.5,38.9,29.47,WSW,254,0.0,8.0,94,0.00,,,0.00,VWS V12.07,2013-11-01 13:54:00,
2013-11-01 08:59:00,40.5,38.9,29.47,NNW,335,0.0,8.0,94,0.00,,,0.00,VWS V12.07,2013-11-01 13:59:00,
2013-11-01 09:09:00,40.5,38.9,29.48,West,276,4.0,4.0,94,0.00,,,0.00,VWS V12.07,2013-11-01 14:09:00,
2013-11-01 09:14:00,40.5,38.9,29.48,WSW,244,0.0,4.0,94,0.00,,,0.00,VWS V12.07,2013-11-01 14:14:00,
2013-11-01 09:19:00,40.5,38.9,29.48,SW,218,0.0,5.0,94,0.00,,,0.00,VWS V12.07,2013-11-01 14:19:00,
2013-11-01 09:24:00,40.5,38.9,29.48,North,360,1.0,5.0,94,0.00,,,0.00,VWS V12.07,2013-11-01 14:24:00,
2013-11-01 09:34:00,40.5,38.9,29.49,WSW,246,0.0,0.0,94,0.00,,,0.00,VWS V12.07,2013-11-01 14:34:00,
2013-11-01 09:39:00,40.5,38.9,29.49,WSW,241,0.0,6.0,94,0.00,,,0.00,VWS V12.07,2013-11-01 14:39:00,
2013-11-01 09:49:00,40.6,39.0,29.49,WSW,257,0.0,6.0,94,0.00,,,0.00,VWS V12.07,2013-11-01 14:49:00,
2013-11-01 09:54:00,40.6,39.0,29.49,SSW,192,0.0,6.0,94,0.00,,,0.00,VWS V12.07,2013-11-01 14:54:00,
2013-11-01 09:59:00,40.6,38.7,29.50,West,279,0.0,7.0,93,0.00,,,0.00,VWS V12.07,2013-11-01 14:59:00,
2013-11-01 10:04:00,40.6,38.7,29.50,WNW,294,0.0,2.0,93,0.00,,,0.00,VWS V12.07,2013-11-01 15:04:00,
2013-11-01 10:14:00,40.5,38.6,29.50,SW,223,0.0,5.0,93,0.00,,,0.00,VWS V12.07,2013-11-01 15:14:00,
2013-11-01 10:19:00,40.4,38.5,29.50,WSW,240,0.0,6.0,93,0.00,,,0.00,VWS V12.07,2013-11-01 15:19:00,
2013-11-01 10:24:00,40.4,38.5,29.51,NNW,345,0.0,6.0,93,0.00,,,0.00,VWS V12.07,2013-11-01 15:24:00,
2013-11-01 10:29:00,40.4,38.5,29.51,WNW,292,0.0,6.0,93,0.00,,,0.00,VWS V12.07,2013-11-01 15:29:00,
2013-11-01 10:34:00,40.4,38.5,29.51,WSW,248,0.0,3.0,93,0.00,,,0.00,VWS V12.07,2013-11-01 15:34:00,
2013-11-01 10:44:00,40.4,38.5,29.51,WNW,283,0.0,5.0,93,0.00,,,0.00,VWS V12.07,2013-11-01 15:44:00,
2013-11-01 10:54:00,40.5,38.6,29.52,West,275,0.0,5.0,93,0.00,,,0.00,VWS V12.07,2013-11-01 15:54:00,
2013-11-01 11:04:00,40.5,38.6,29.52,West,265,0.0,0.0,93,0.00,,,0.00,VWS V12.07,2013-11-01 16:04:00,
2013-11-01 11:09:00,40.5,38.6,29.52,SW,226,0.0,3.0,93,0.00,,,0.00,VWS V12.07,2013-11-01 16:09:00,
2013-11-01 11:19:00,40.4,38.5,29.53,West,281,0.0,4.0,93,0.00,,,0.00,VWS V12.07,2013-11-01 16:19:00,
2013-11-01 11:24:00,40.5,38.6,29.53,SW,221,0.0,4.0,93,0.00,,,0.00,VWS V12.07,2013-11-01 16:24:00,
2013-11-01 11:29:00,40.5,38.6,29.53,WSW,244,0.0,4.0,93,0.00,,,0.00,VWS V12.07,2013-11-01 16:29:00,
2013-11-01 11:34:00,40.5,38.6,29.53,SW,228,0.0,0.0,93,0.00,,,0.00,VWS V12.07,2013-11-01 16:34:00,
2013-11-01 11:39:00,40.6,38.7,29.53,NE,36,0.0,3.0,93,0.00,,,0.00,VWS V12.07,2013-11-01 16:39:00,
2013-11-01 11:44:00,40.7,38.8,29.54,NNE,15,0.0,3.0,93,0.00,,,0.00,VWS V12.07,2013-11-01 16:44:00,
2013-11-01 11:54:00,40.8,38.9,29.54,SSW,200,0.0,3.0,93,0.00,,,0.00,VWS V12.07,2013-11-01 16:54:00,
2013-11-01 11:59:00,40.8,38.7,29.54,NNW,328,0.0,4.0,92,0.00,,,0.00,VWS V12.07,2013-11-01 16:59:00,
2013-11-01 12:04:00,40.9,38.8,29.54,NW,321,0.0,0.0,92,0.00,,,0.00,VWS V12.07,2013-11-01 17:04:00,
2013-11-01 12:09:00,40.9,38.8,29.54,NW,321,0.0,1.0,92,0.00,,,0.00,VWS V12.07,2013-11-01 17:09:00,
2013-11-01 12:19:00,40.9,38.5,29.54,SW,221,0.0,1.0,91,0.00,,,0.00,VWS V12.07,2013-11-01 17:19:00,
2013-11-01 12:24:00,41.0,38.6,29.54,SSW,211,0.0,1.0,91,0.00,,,0.00,VWS V12.07,2013-11-01 17:24:00,
2013-11-01 12:29:00,40.9,38.5,29.55,NNE,29,0.0,2.0,91,0.00,,,0.00,VWS V12.07,2013-11-01 17:29:00,
2013-11-01 12:34:00,40.8,38.4,29.54,NNE,27,0.0,1.0,91,0.00,,,0.00,VWS V12.07,2013-11-01 17:34:00,
2013-11-01 12:39:00,40.8,38.4,29.55,WNW,302,0.0,1.0,91,0.00,,,0.00,VWS V12.07,2013-11-01 17:39:00,
2013-11-01 12:44:00,40.7,38.0,29.55,NE,37,0.0,3.0,90,0.00,,,0.00,VWS V12.07,2013-11-01 17:44:00,
2013-11-01 12:49:00,40.6,37.9,29.55,NE,40,0.0,3.0,90,0.00,,,0.00,VWS V12.07,2013-11-01 17:49:00,
2013-11-01 12:54:00,40.5,37.5,29.55,NE,40,0.0,3.0,89,0.00,,,0.00,VWS V12.07,2013-11-01 17:54:00,
2013-11-01 12:59:00,40.5,37.8,29.55,NNE,32,0.0,3.0,90,0.00,,,0.00,VWS V12.07,2013-11-01 17:59:00,
2013-11-01 13:04:00,40.5,37.8,29.55,NNE,30,0.0,0.0,90,0.00,,,0.00,VWS V12.07,2013-11-01 18:04:00,
2013-11-01 13:09:00,40.5,37.8,29.55,NNE,31,0.0,2.0,90,0.00,,,0.00,VWS V12.07,2013-11-01 18:09:00,
2013-11-01 13:14:00,40.5,37.8,29.56,NNE,31,0.0,2.0,90,0.00,,,0.00,VWS V12.07,2013-11-01 18:14:00,
2013-11-01 13:19:00,40.5,38.1,29.56,NNW,336,1.0,2.0,91,0.00,,,0.00,VWS V12.07,2013-11-01 18:19:00,
2013-11-01 13:29:00,40.5,38.1,29.56,NNW,332,0.0,2.0,91,0.00,,,0.00,VWS V12.07,2013-11-01 18:29:00,
2013-11-01 13:34:00,40.5,38.1,29.56,NNW,333,0.0,0.0,91,0.00,,,0.00,VWS V12.07,2013-11-01 18:34:00,
2013-11-01 13:39:00,40.5,38.4,29.56,NNW,332,0.0,0.0,92,0.00,,,0.00,VWS V12.07,2013-11-01 18:39:00,
2013-11-01 13:44:00,40.6,38.5,29.56,NNW,333,0.0,1.0,92,0.00,,,0.00,VWS V12.07,2013-11-01 18:44:00,
2013-11-01 13:49:00,40.6,38.5,29.57,NNW,333,0.0,1.0,92,0.00,,,0.00,VWS V12.07,2013-11-01 18:49:00,
2013-11-01 13:54:00,40.7,38.6,29.57,WNW,291,0.0,3.0,92,0.00,,,0.00,VWS V12.07,2013-11-01 18:54:00,
2013-11-01 13:59:00,40.7,38.8,29.57,WNW,291,0.0,3.0,93,0.00,,,0.00,VWS V12.07,2013-11-01 18:59:00,
2013-11-01 14:09:00,40.8,38.9,29.57,WNW,284,0.0,2.0,93,0.00,,,0.00,VWS V12.07,2013-11-01 19:09:00,
2013-11-01 14:14:00,40.7,38.8,29.58,NW,314,0.0,2.0,93,0.00,,,0.00,VWS V12.07,2013-11-01 19:14:00,
2013-11-01 14:19:00,40.6,38.7,29.58,NNW,333,0.0,2.0,93,0.00,,,0.00,VWS V12.07,2013-11-01 19:19:00,
2013-11-01 14:24:00,40.4,38.5,29.58,NNE,29,0.0,4.0,93,0.00,,,0.00,VWS V12.07,2013-11-01 19:24:00,
2013-11-01 14:29:00,40.2,38.3,29.59,NE,44,0.0,4.0,93,0.00,,,0.00,VWS V12.07,2013-11-01 19:29:00,
2013-11-01 14:39:00,39.9,38.0,29.59,North,355,0.0,2.0,93,0.00,,,0.00,VWS V12.07,2013-11-01 19:39:00,
2013-11-01 14:44:00,39.8,38.0,29.59,NE,55,0.0,5.0,93,0.00,,,0.00,VWS V12.07,2013-11-01 19:44:00,
2013-11-01 14:49:00,39.6,37.8,29.60,North,11,0.0,5.0,93,0.00,,,0.00,VWS V12.07,2013-11-01 19:49:00,
2013-11-01 14:54:00,39.5,37.7,29.60,NNE,28,0.0,5.0,93,0.00,,,0.00,VWS V12.07,2013-11-01 19:54:00,
2013-11-01 14:59:00,39.4,37.5,29.60,ENE,60,0.0,5.0,93,0.00,,,0.00,VWS V12.07,2013-11-01 19:59:00,
2013-11-01 15:04:00,39.4,37.5,29.60,SW,232,0.0,0.0,93,0.00,,,0.00,VWS V12.07,2013-11-01 20:04:00,
2013-11-01 15:09:00,39.4,37.5,29.60,SW,236,0.0,1.0,93,0.00,,,0.00,VWS V12.07,2013-11-01 20:09:00,
2013-11-01 15:14:00,39.4,37.5,29.61,SW,236,0.0,1.0,93,0.00,,,0.00,VWS V12.07,2013-11-01 20:14:00,
2013-11-01 15:19:00,39.5,37.7,29.61,SW,236,0.0,1.0,93,0.00,,,0.00,VWS V12.07,2013-11-01 20:19:00,
2013-11-01 15:24:00,39.5,37.9,29.61,SW,236,0.0,1.0,94,0.00,,,0.00,VWS V12.07,2013-11-01 20:24:00,
2013-11-01 15:29:00,39.6,38.0,29.61,SW,236,0.0,1.0,94,0.00,,,0.00,VWS V12.07,2013-11-01 20:29:00,
2013-11-01 15:34:00,39.6,38.0,29.62,WSW,242,1.0,2.0,94,0.00,,,0.00,VWS V12.07,2013-11-01 20:34:00,
2013-11-01 15:39:00,39.6,38.0,29.62,WSW,242,0.0,2.0,94,0.00,,,0.00,VWS V12.07,2013-11-01 20:39:00,
2013-11-01 15:49:00,39.8,38.2,29.62,WSW,242,0.0,2.0,94,0.00,,,0.00,VWS V12.07,2013-11-01 20:49:00,
2013-11-01 15:54:00,39.8,38.2,29.62,WSW,242,0.0,2.0,94,0.00,,,0.00,VWS V12.07,2013-11-01 20:54:00,
2013-11-01 15:59:00,39.8,38.2,29.63,WSW,242,0.0,2.0,94,0.00,,,0.00,VWS V12.07,2013-11-01 20:59:00,
2013-11-01 16:04:00,39.8,38.2,29.63,WSW,242,0.0,0.0,94,0.00,,,0.00,VWS V12.07,2013-11-01 21:04:00,
2013-11-01 16:09:00,39.7,38.1,29.63,WSW,242,0.0,0.0,94,0.00,,,0.00,VWS V12.07,2013-11-01 21:09:00,
2013-11-01 16:14:00,39.7,38.1,29.64,WSW,242,0.0,1.0,94,0.00,,,0.00,VWS V12.07,2013-11-01 21:14:00,
2013-11-01 16:19:00,39.7,38.1,29.64,WSW,242,0.0,1.0,94,0.00,,,0.00,VWS V12.07,2013-11-01 21:19:00,
2013-11-01 16:24:00,39.7,38.1,29.64,WSW,242,0.0,1.0,94,0.00,,,0.00,VWS V12.07,2013-11-01 21:24:00,
2013-11-01 16:29:00,39.7,38.1,29.64,WSW,242,0.0,1.0,94,0.00,,,0.00,VWS V12.07,2013-11-01 21:29:00,
2013-11-01 16:34:00,39.7,38.1,29.65,WSW,242,0.0,0.0,94,0.00,,,0.00,VWS V12.07,2013-11-01 21:34:00,
2013-11-01 16:39:00,39.7,38.1,29.65,WSW,242,0.0,0.0,94,0.00,,,0.00,VWS V12.07,2013-11-01 21:39:00,
2013-11-01 16:44:00,39.7,38.1,29.65,WSW,242,0.0,0.0,94,0.00,,,0.00,VWS V12.07,2013-11-01 21:44:00,
2013-11-01 16:54:00,39.7,38.1,29.66,WSW,242,0.0,1.0,94,0.00,,,0.00,VWS V12.07,2013-11-01 21:54:00,
2013-11-01 16:59:00,39.7,38.1,29.66,WSW,242,0.0,1.0,94,0.00,,,0.00,VWS V12.07,2013-11-01 21:59:00,
2013-11-01 17:09:00,39.7,38.1,29.66,WSW,242,0.0,0.0,94,0.00,,,0.00,VWS V12.07,2013-11-01 22:09:00,
2013-11-01 17:14:00,39.7,38.1,29.66,WSW,242,0.0,0.0,94,0.00,,,0.00,VWS V12.07,2013-11-01 22:14:00,
2013-11-01 17:19:00,39.7,38.1,29.66,WSW,242,0.0,0.0,94,0.00,,,0.00,VWS V12.07,2013-11-01 22:19:00,
2013-11-01 17:24:00,39.6,38.0,29.67,WSW,242,0.0,0.0,94,0.00,,,0.00,VWS V12.07,2013-11-01 22:24:00,
2013-11-01 17:29:00,39.6,38.0,29.67,WSW,242,0.0,0.0,94,0.00,,,0.00,VWS V12.07,2013-11-01 22:29:00,
2013-11-01 17:34:00,39.6,38.0,29.67,WSW,242,0.0,0.0,94,0.00,,,0.00,VWS V12.07,2013-11-01 22:34:00,
2013-11-01 17:39:00,39.5,37.9,29.67,WSW,242,0.0,1.0,94,0.00,,,0.00,VWS V12.07,2013-11-01 22:39:00,
2013-11-01 17:44:00,39.5,37.9,29.67,WSW,242,0.0,1.0,94,0.00,,,0.00,VWS V12.07,2013-11-01 22:44:00,
2013-11-01 17:49:00,39.5,37.9,29.68,WSW,242,0.0,1.0,94,0.00,,,0.00,VWS V12.07,2013-11-01 22:49:00,
2013-11-01 17:59:00,39.5,37.9,29.68,WSW,242,0.0,1.0,94,0.00,,,0.00,VWS V12.07,2013-11-01 22:59:00,
2013-11-01 18:04:00,39.6,38.0,29.68,WSW,242,0.0,0.0,94,0.00,,,0.00,VWS V12.07,2013-11-01 23:04:00,
2013-11-01 18:09:00,39.6,38.0,29.68,WSW,242,0.0,1.0,94,0.00,,,0.00,VWS V12.07,2013-11-01 23:09:00,
2013-11-01 18:14:00,39.6,38.0,29.69,WSW,249,1.0,3.0,94,0.00,,,0.00,VWS V12.07,2013-11-01 23:14:00,
2013-11-01 18:19:00,39.5,37.9,29.69,WNW,284,0.0,3.0,94,0.00,,,0.00,VWS V12.07,2013-11-01 23:19:00,
2013-11-01 18:24:00,39.5,37.9,29.69,SSW,192,0.0,3.0,94,0.00,,,0.00,VWS V12.07,2013-11-01 23:24:00,
2013-11-01 18:34:00,39.4,37.8,29.70,WSW,257,0.0,0.0,94,0.00,,,0.00,VWS V12.07,2013-11-01 23:34:00,
2013-11-01 18:39:00,39.3,37.7,29.70,West,259,0.0,2.0,94,0.00,,,0.00,VWS V12.07,2013-11-01 23:39:00,
2013-11-01 18:44:00,39.4,37.8,29.70,West,259,0.0,2.0,94,0.00,,,0.00,VWS V12.07,2013-11-01 23:44:00,
2013-11-01 18:49:00,39.3,37.7,29.70,West,259,0.0,2.0,94,0.00,,,0.00,VWS V12.07,2013-11-01 23:49:00,
2013-11-01 18:59:00,39.3,37.7,29.71,West,261,0.0,2.0,94,0.00,,,0.00,VWS V12.07,2013-11-01 23:59:00,
2013-11-01 19:04:00,39.3,37.7,29.71,West,260,0.0,1.0,94,0.00,,,0.00,VWS V12.07,2013-11-02 00:04:00,
2013-11-01 19:09:00,39.3,37.7,29.71,West,260,0.0,1.0,94,0.00,,,0.00,VWS V12.07,2013-11-02 00:09:00,
2013-11-01 19:14:00,39.3,37.7,29.71,West,270,0.0,4.0,94,0.00,,,0.00,VWS V12.07,2013-11-02 00:14:00,
2013-11-01 19:19:00,39.3,37.7,29.72,West,270,0.0,4.0,94,0.00,,,0.00,VWS V12.07,2013-11-02 00:19:00,
2013-11-01 19:29:00,39.3,37.7,29.72,NW,304,0.0,4.0,94,0.00,,,0.00,VWS V12.07,2013-11-02 00:29:00,
2013-11-01 19:34:00,39.3,37.7,29.72,WNW,290,0.0,0.0,94,0.00,,,0.00,VWS V12.07,2013-11-02 00:34:00,
2013-11-01 19:39:00,39.3,37.7,29.72,WNW,290,0.0,1.0,94,0.00,,,0.00,VWS V12.07,2013-11-02 00:39:00,
2013-11-01 19:44:00,39.3,37.7,29.73,WNW,284,0.0,2.0,94,0.00,,,0.00,VWS V12.07,2013-11-02 00:44:00,
2013-11-01 19:49:00,39.3,37.7,29.73,NNW,331,1.0,2.0,94,0.00,,,0.00,VWS V12.07,2013-11-02 00:49:00,
2013-11-01 19:54:00,39.3,37.7,29.73,NW,316,1.0,2.0,94,0.00,,,0.00,VWS V12.07,2013-11-02 00:54:00,
2013-11-01 19:59:00,39.2,37.6,29.73,NW,320,3.0,3.0,94,0.00,,,0.00,VWS V12.07,2013-11-02 00:59:00,
2013-11-01 20:04:00,39.2,37.6,29.73,WNW,282,0.0,1.0,94,0.00,,,0.00,VWS V12.07,2013-11-02 01:04:00,
2013-11-01 20:09:00,39.1,37.5,29.73,WSW,244,0.0,4.0,94,0.00,,,0.00,VWS V12.07,2013-11-02 01:09:00,
2013-11-01 20:14:00,39.1,37.5,29.73,NW,304,0.0,4.0,94,0.00,,,0.00,VWS V12.07,2013-11-02 01:14:00,
2013-11-01 20:19:00,39.1,37.5,29.74,WNW,294,0.0,4.0,94,0.00,,,0.00,VWS V12.07,2013-11-02 01:19:00,
2013-11-01 20:24:00,39.1,37.5,29.74,North,355,0.0,4.0,94,0.00,,,0.00,VWS V12.07,2013-11-02 01:24:00,
2013-11-01 20:34:00,39.0,37.4,29.74,WNW,296,0.0,1.0,94,0.00,,,0.00,VWS V12.07,2013-11-02 01:34:00,
2013-11-01 20:44:00,38.8,37.0,29.74,NW,312,2.0,3.0,93,0.00,,,0.00,VWS V12.07,2013-11-02 01:44:00,
2013-11-01 20:49:00,38.8,37.0,29.74,NNW,342,2.0,3.0,93,0.00,,,0.00,VWS V12.07,2013-11-02 01:49:00,
2013-11-01 20:54:00,38.7,36.8,29.74,NE,37,0.0,3.0,93,0.00,,,0.00,VWS V12.07,2013-11-02 01:54:00,
2013-11-01 21:04:00,38.6,36.8,29.75,NE,36,0.0,1.0,93,0.00,,,0.00,VWS V12.07,2013-11-02 02:04:00,
2013-11-01 21:09:00,38.6,36.8,29.75,NE,36,0.0,1.0,93,0.00,,,0.00,VWS V12.07,2013-11-02 02:09:00,
2013-11-01 21:14:00,38.5,36.7,29.75,NE,36,0.0,1.0,93,0.00,,,0.00,VWS V12.07,2013-11-02 02:14:00,
2013-11-01 21:24:00,38.5,36.7,29.75,NE,36,0.0,1.0,93,0.00,,,0.00,VWS V12.07,2013-11-02 02:24:00,
2013-11-01 21:29:00,38.4,36.6,29.76,NE,36,0.0,1.0,93,0.00,,,0.00,VWS V12.07,2013-11-02 02:29:00,
2013-11-01 21:39:00,38.4,36.6,29.76,NE,52,0.0,1.0,93,0.00,,,0.00,VWS V12.07,2013-11-02 02:39:00,
2013-11-01 21:44:00,38.4,36.6,29.76,NE,34,0.0,1.0,93,0.00,,,0.00,VWS V12.07,2013-11-02 02:44:00,
2013-11-01 21:49:00,38.4,36.6,29.76,NE,34,0.0,1.0,93,0.00,,,0.00,VWS V12.07,2013-11-02 02:49:00,
2013-11-01 21:59:00,38.3,36.5,29.77,NNE,19,0.0,2.0,93,0.00,,,0.00,VWS V12.07,2013-11-02 02:59:00,
2013-11-01 22:09:00,38.2,36.4,29.77,NNE,16,0.0,2.0,93,0.00,,,0.00,VWS V12.07,2013-11-02 03:09:00,
2013-11-01 22:19:00,38.1,36.3,29.78,North,9,1.0,2.0,93,0.00,,,0.00,VWS V12.07,2013-11-02 03:19:00,
2013-11-01 22:24:00,38.1,36.3,29.78,North,9,0.0,2.0,93,0.00,,,0.00,VWS V12.07,2013-11-02 03:24:00,
2013-11-01 22:34:00,38.0,36.4,29.78,North,9,0.0,1.0,94,0.00,,,0.00,VWS V12.07,2013-11-02 03:34:00,
2013-11-01 22:44:00,37.9,36.3,29.78,NNE,22,0.0,3.0,94,0.00,,,0.00,VWS V12.07,2013-11-02 03:44:00,
2013-11-01 22:49:00,37.8,36.2,29.79,NNE,22,0.0,3.0,94,0.00,,,0.00,VWS V12.07,2013-11-02 03:49:00,
2013-11-01 22:59:00,37.8,36.2,29.79,NNE,32,0.0,3.0,94,0.00,,,0.00,VWS V12.07,2013-11-02 03:59:00,
2013-11-01 23:04:00,37.7,35.9,29.79,NNE,24,0.0,3.0,93,0.00,,,0.00,VWS V12.07,2013-11-02 04:04:00,
2013-11-01 23:09:00,37.7,35.9,29.79,NNE,24,0.0,3.0,93,0.00,,,0.00,VWS V12.07,2013-11-02 04:09:00,
2013-11-01 23:14:00,37.6,36.0,29.79,NNE,14,1.0,3.0,94,0.00,,,0.00,VWS V12.07,2013-11-02 04:14:00,
2013-11-01 23:19:00,37.6,35.8,29.79,NNE,14,0.0,3.0,93,0.00,,,0.00,VWS V12.07,2013-11-02 04:19:00,
2013-11-01 23:24:00,37.6,36.0,29.79,NNE,14,0.0,3.0,94,0.00,,,0.00,VWS V12.07,2013-11-02 04:24:00,
2013-11-01 23:29:00,37.6,36.0,29.79,NNE,14,0.0,3.0,94,0.00,,,0.00,VWS V12.07,2013-11-02 04:29:00,
2013-11-01 23:34:00,37.5,35.9,29.79,NNE,14,0.0,0.0,94,0.00,,,0.00,VWS V12.07,2013-11-02 04:34:00,
2013-11-01 23:39:00,37.5,35.9,29.79,NNE,14,0.0,0.0,94,0.00,,,0.00,VWS V12.07,2013-11-02 04:39:00,
2013-11-01 23:49:00,37.5,35.9,29.79,NNE,14,0.0,0.0,94,0.00,,,0.00,VWS V12.07,2013-11-02 04:49:00,
2013-11-01 23:54:00,37.5,35.9,29.79,NNE,14,0.0,0.0,94,0.00,,,0.00,VWS V12.07,2013-11-02 04:54:00,
2013-11-01 23:59:00,37.5,35.9,29.79,NNE,14,0.0,1.0,94,0.00,,,0.00,VWS V12.07,2013-11-02 04:59:00,